Content
SEND FEEDBACK

Daily
Averages
Monthly
Summary
United States of America

BRIDGEPORT, PENNSYLVANIA


Home > North America > United States > Pennsylvania
Elevation: 7 feet     Latitude: 40 07N     Longitude: 075 21W

WEATHER
 
SELECT A DAY
Number of Records: 285,454;   Date Range: 1/24/03 - 10/24/14
 
SHARE

PRINT THIS DATA

[ ← Previous Day ]
WEATHER ALMANAC - AUGUST 18, 2014
[ Next Day → ]
[ °C ]   °F
Weather ElementAverageHighLow
Temperature68.5 °F80.6 °F (4:15 pm)53.6 °F (3:55 am)
Dewpoint58.3 °F64.4 °F (11:35 am)51.8 °F (3:55 am)
Humidity73.1 %100 % (1:35 am)47 % (11:35 am)
Barometer29.89 in29.94 in (12:35 am)29.82 in (12:35 am)
Wind Speed1.5 mph8.1 mph (11:15 am)
Weather ElementAverage
Visibility9.8 mi
Wind DirectionE (91.8 °)

Weather ElementTotal
Precipitation---
Cooling Degree Days2.1 (Base 65)
Growing Degree Days17.1 (Base 50)
Averaged from 71 records on August 18, 2014
WEATHER CONDITIONS BREAKOUT
WIND DIRECTION BREAKOUT
WEATHER BY HOUR - AUGUST 18, 2014
[ °C ]   °F
Local TimeTemperatureDewpointHumidityBarometerVisibilityWind DirectionWind SpeedGust SpeedPrecipitationEventsConditions
12:15 AM64.4 °F55.4 °F73 %29.91 in10.0 miCalmClear
12:35 AM60.8 °F55.4 °F82 %29.91 in10.0 miCalmClear
12:55 AM60.8 °F55.4 °F82 %29.91 in10.0 miCalmClear
1:15 AM59.0 °F55.4 °F88 %29.91 in10.0 miCalmClear
1:35 AM59.0 °F55.4 °F88 %29.92 in10.0 miCalmClear
1:55 AM59.0 °F55.4 °F88 %29.91 in10.0 miCalmClear
2:15 AM57.2 °F55.4 °F94 %29.91 in10.0 miCalmClear
2:35 AM59.0 °F55.4 °F88 %29.91 in10.0 miCalmClear
2:55 AM57.2 °F55.4 °F94 %29.90 in10.0 miCalmClear
3:15 AM55.4 °F53.6 °F94 %29.91 in10.0 miCalmClear
3:35 AM55.4 °F53.6 °F94 %29.91 in10.0 miCalmClear
3:55 AM53.6 °F53.6 °F100 %29.91 in10.0 miCalmClear
4:15 AM55.4 °F53.6 °F94 %29.91 in10.0 miCalmClear
4:35 AM57.2 °F55.4 °F94 %29.91 in10.0 miCalmClear
4:55 AM55.4 °F55.4 °F100 %29.91 in10.0 miCalmClear
5:15 AM55.4 °F53.6 °F94 %29.91 in10.0 miCalmClear
5:35 AM53.6 °F53.6 °F100 %29.91 in10.0 miCalmClear
5:55 AM53.6 °F51.8 °F94 %29.93 in7.0 miCalmClear
6:15 AM55.4 °F53.6 °F94 %29.93 in7.0 miCalmClear
6:35 AM53.6 °F53.6 °F100 %29.93 in2.0 miCalmClear
6:55 AM55.4 °F53.6 °F94 %29.93 in10.0 miCalmClear
7:15 AM59.0 °F57.2 °F94 %29.93 in10.0 miCalmClear
7:35 AM62.6 °F59.0 °F88 %29.93 in10.0 miCalmClear
7:55 AM64.4 °F59.0 °F83 %29.94 in10.0 miCalmClear
8:15 AM66.2 °F59.0 °F78 %29.94 in10.0 miCalmClear
8:35 AM68.0 °F59.0 °F73 %29.94 in10.0 miCalmClear
8:55 AM69.8 °F59.0 °F68 %29.94 in10.0 miWNW (290°)3.5 mphClear
9:15 AM71.6 °F57.2 °F60 %29.94 in10.0 miWNW (290°)3.5 mphClear
9:35 AM71.6 °F59.0 °F64 %29.94 in10.0 miCalmClear
9:55 AM71.6 °F59.0 °F64 %29.94 in10.0 miNNW (340°)4.6 mphClear
10:15 AM73.4 °F59.0 °F61 %29.94 in10.0 miCalmClear
10:35 AM73.4 °F59.0 °F61 %29.93 in10.0 miCalmClear
10:55 AM75.2 °F59.0 °F57 %29.93 in10.0 miCalmClear
11:15 AM77.0 °F59.0 °F54 %29.92 in10.0 miNW (320°)3.5 mphClear
11:35 AM77.0 °F55.4 °F47 %29.92 in10.0 miNorth (360°)3.5 mphClear
11:55 AM77.0 °F57.2 °F50 %29.91 in10.0 miWest (260°)3.5 mphClear
12:15 PM77.0 °F57.2 °F50 %29.91 in10.0 miWest (280°)5.8 mphClear
12:35 PM78.8 °F57.2 °F47 %29.90 in10.0 miCalmClear
12:55 PM78.8 °F57.2 °F47 %29.89 in10.0 miWest (280°)5.8 mphClear
1:15 PM78.8 °F59.0 °F51 %29.89 in10.0 miCalmClear
1:35 PM78.8 °F59.0 °F51 %29.88 in10.0 miNW (320°)3.5 mphClear
1:55 PM80.6 °F59.0 °F48 %29.88 in10.0 miNW (320°)4.6 mphClear
2:15 PM80.6 °F59.0 °F48 %29.88 in10.0 miWNW (290°)4.6 mphClear
2:35 PM80.6 °F59.0 °F48 %29.86 in10.0 miWSW (250°)8.1 mphScattered Clouds
2:55 PM78.8 °F59.0 °F51 %29.86 in10.0 miWest (280°)6.9 mphScattered Clouds
3:15 PM80.6 °F59.0 °F48 %29.85 in10.0 miWest (280°)5.8 mphScattered Clouds
3:35 PM80.6 °F59.0 °F48 %29.85 in10.0 miWNW (290°)6.9 mphScattered Clouds
3:55 PM80.6 °F59.0 °F48 %29.84 in10.0 miNW (320°)5.8 mphClear
4:15 PM80.6 °F60.8 °F51 %29.83 in10.0 miWest (280°)3.5 mphClear
4:30 PM80.6 °F59.0 °F48 %29.83 in10.0 miNW (310°)5.8 mphClear
4:55 PM80.6 °F59.0 °F48 %29.83 in10.0 miCalmScattered Clouds
5:15 PM80.6 °F59.0 °F48 %29.83 in10.0 miNW (320°)3.5 mphScattered Clouds
5:35 PM80.6 °F59.0 °F48 %29.83 in10.0 miWNW (300°)3.5 mphScattered Clouds
5:55 PM80.6 °F59.0 °F48 %29.84 in10.0 miWNW (290°)5.8 mphScattered Clouds
6:15 PM78.8 °F59.0 °F51 %29.83 in10.0 miWSW (250°)4.6 mphScattered Clouds
6:35 PM78.8 °F59.0 °F51 %29.83 in10.0 miCalmScattered Clouds
6:55 PM77.0 °F60.8 °F57 %29.82 in10.0 miCalmScattered Clouds
7:15 PM77.0 °F62.6 °F61 %29.82 in10.0 miCalmScattered Clouds
7:40 PM71.6 °F64.4 °F78 %29.83 in10.0 miCalmClear
7:55 PM69.8 °F64.4 °F83 %29.84 in10.0 miCalmClear
8:15 PM68.0 °F62.6 °F83 %29.84 in10.0 miCalmClear
8:35 PM68.0 °F62.6 °F83 %29.85 in10.0 miCalmClear
8:55 PM66.2 °F62.6 °F88 %29.85 in10.0 miCalmClear
9:15 PM66.2 °F62.6 °F88 %29.86 in10.0 miCalmScattered Clouds
9:35 PM64.4 °F62.6 °F94 %29.86 in10.0 miCalmMostly Cloudy
9:55 PM64.4 °F62.6 °F94 %29.86 in10.0 miCalmMostly Cloudy
10:15 PM64.4 °F62.6 °F94 %29.86 in10.0 miCalmScattered Clouds
10:35 PM64.4 °F62.6 °F94 %29.86 in10.0 miCalmScattered Clouds
10:55 PM64.4 °F62.6 °F94 %29.86 in10.0 miCalmMostly Cloudy
11:15 PM64.4 °F62.6 °F94 %29.86 in10.0 miCalmOvercast
11:35 PM66.2 °F64.4 °F94 %29.86 in10.0 miCalmMostly Cloudy
Hourly data recorded from KLOM, located miles away from Bridgeport, Pennsylvania







STORIES FROM OUR PARTNERS